Meteo Giornale » Osservazioni meteo Italia » Grottaglie

ore: 05:50 - Osservazioni Meteo Grottaglie
Lat. 40° 31' N Lon. 17° 24' E Alt. 64 metri s.l.m.

sereno

19 °C

Sereno

Temp. 24 Ore

19 °C

35 °C

Nord

3.7 Km/h

Dew point 17 °C

Umidità 88 %

Visibilità  10 Km

Il sole sorge alle ore 06:18

Il sole tramonta alle ore 19:21

Data e Ora Cielo e Fenomeni T °C DP °C Um. % Pres. hPa Vis. km Vento km/h
Oggi h: 05:50 sereno Sereno 19 17 88 1016 10 N 3.7
Oggi h: 05:20 sereno Sereno 19 17 88 1016 10 N 5.5
Oggi h: 04:50 sereno Sereno 20 17 82 1016 10 N 1.8
Oggi h: 04:20 sereno Sereno 20 16 77 1016 10 N 3.7
Oggi h: 03:50 sereno Sereno 20 17 82 1016 10 N 3.7
Oggi h: 03:20 sereno Sereno 21 17 77 1016 10 N 1.8
Oggi h: 02:50 sereno Sereno 21 17 77 1016 10 N 3.7
Oggi h: 02:20 sereno Sereno 21 18 82 1016 10 N 3.7
Oggi h: 01:50 sereno Sereno 22 18 78 1016 10 N 3.7
Oggi h: 01:20 sereno Sereno 22 18 78 1017 10 N 3.7
Oggi h: 00:50 sereno Sereno 23 17 68 1016 10 N 1.8
Oggi h: 00:20 sereno Sereno 23 18 73 1016 10 N 5.5
Ieri h: 23:50 sereno Sereno 24 18 69 1016 10 N 3.7
Ieri h: 23:20 sereno Sereno 24 17 64 1016 10 N 1.8
Ieri h: 22:50 poco_nuvoloso Poco Nuvoloso 25 16 57 1016 10 N 3.7
Ieri h: 22:20 sereno Sereno 26 16 54 1016 10 N 1.8
Ieri h: 21:50 sereno Sereno 28 15 45 1016 10 N 1.8
Ieri h: 21:20 sereno Sereno 29 14 39 1016 10 N 3.7
Ieri h: 20:50 sereno Sereno 29 15 42 1016 10 N 1.8
Ieri h: 20:20 sereno Sereno 29 16 45 1016 10 N 3.7
Ieri h: 19:50 sereno Sereno 30 17 45 1015 10 N 3.7
Ieri h: 19:20 sereno Sereno 30 16 42 1015 10 N 9.3
Ieri h: 18:50 sereno Sereno 31 18 45 1015 10 N 14.8
Ieri h: 18:20 sereno Sereno 32 20 49 1015 10 N/NE 14.8
Ieri h: 17:50 sereno Sereno 33 20 46 1014 10 N/NE 16.7
Ieri h: 17:20 sereno Sereno 33 20 46 1014 10 N/NE 16.7
Ieri h: 16:50 sereno Sereno 34 21 46 1014 10 N/NE 18.5
Ieri h: 16:20 sereno Sereno 34 20 43 1014 10 N/NE 14.8
Ieri h: 15:50 sereno Sereno 34 22 49 1015 10 N/NE 18.5
Ieri h: 15:20 nuvoloso Nuvoloso 33 22 52 1015 10 N 24
Ieri h: 14:50 poco_nuvoloso Poco Nuvoloso 35 22 47 1015 10 N/NE 18.5
Ieri h: 14:20 sereno Sereno 35 21 44 1015 10 E/NE 20.3
Ieri h: 13:50 sereno Sereno 35 21 44 1015 10 NE 18.5
Ieri h: 13:20 nuvoloso Nuvoloso 35 20 41 1015 10 NE 14.8
Ieri h: 12:50 poco_nuvoloso Poco Nuvoloso 35 21 44 1015 10 N/NE 11.1
Ieri h: 12:20 sereno Sereno 33 22 52 1015 10 N 7.4
Ieri h: 11:50 poco_nuvoloso Poco Nuvoloso 33 23 55 1015 10 O 9.3
Ieri h: 11:20 poco_nuvoloso Poco Nuvoloso 33 23 55 1015 10 O/SO 9.3
Ieri h: 10:50 sereno Sereno 31 24 66 1015 10 N 9.3
Ieri h: 10:20 sereno Sereno 31 24 66 1015 10 O/NO 9.3
Ieri h: 09:50 sereno Sereno 30 24 70 1015 10 O 7.4
Ieri h: 09:20 sereno Sereno 29 24 74 1015 10 O 7.4
Ieri h: 08:50 sereno Sereno 28 24 78 1015 10 O 7.4
Ieri h: 08:20 sereno Sereno 27 24 83 1015 10 N 5.5
Ieri h: 07:50 sereno Sereno 26 24 88 1015 10 N 1.8
Ieri h: 07:20 sereno Sereno 24 23 94 1015 10 N 1.8
Ieri h: 06:50 sereno Sereno 24 23 94 1015 10 N 5.5